Chandler, OK

6:20 PM CST on November 22, 2017 (GMT -0600)
Chandler Municipal

Weather History for KCQB - October, 2012

Change the Weather History Date:

Friday, October 5, 2012

  Actual Average (KCUH) Record (KCUH)
Temperature  
Mean Temperature 52 °F -  
Max Temperature 59 °F 78 °F 98 °F (1963)
Min Temperature 46 °F 53 °F 40 °F (1991)
Degree Days  
Heating Degree Days 12    
Growing Degree Days 2 (Base 50)    
Moisture  
Dew Point 48 °F    
Average Humidity 83    
Maximum Humidity 94    
Minimum Humidity 67    
Precipitation  
Precipitation 0.00 in - - ()
Sea Level Pressure  
Sea Level Pressure 30.18 in    
Wind  
Wind Speed 8 mph (NNE)    
Max Wind Speed 12 mph    
Max Gust Speed 17 mph    
Visibility 10 miles    
Events Rain    
Averages and records for this station are not official NWS values.
T = Trace of Precipitation, MM = Missing Value Source: NWS Daily Summary

Daily Weather History Graph

Daily Weather History Graph

Search for Another Location

Airport or City:

Trip Planner

Search our weather history database for the weather conditions in past years. The results will help you decide how hot, cold, wet, or windy it might be!

Date:

Astronomy

Oct. 05, 2012 Rise Set
Actual Time 7:25 AM CDT 7:04 PM CDT
Civil Twilight 7:00 AM CDT 7:30 PM CDT
Nautical Twilight 6:30 AM CDT 7:59 PM CDT
Astronomical Twilight 6:01 AM CDT 8:29 PM CDT
Moon 10:38 PM CDT (10/5) 12:25 PM CDT (10/5)
Length of Visible Light 12h 29m
Length of Day
11h 38m
Waning Gibbous, 74% of the Moon is Illuminated
Oct 5
Waning Gibbous
Oct 8
Last Quarter
Oct 15
New
Oct 21
First Quarter
Oct 29
Full

Hourly Weather History & Observations

Time (CDT) Temp. Windchill Dew Point Humidity Pressure Visibility Wind Dir Wind Speed Gust Speed Precip Events Conditions
12:15 AM 59.0 °F - 55.4 °F 88% 30.16 in 10.0 mi NNE 6.9 mph - N/A   Overcast
12:35 AM 59.0 °F - 53.6 °F 82% 30.17 in 10.0 mi North 6.9 mph - N/A   Overcast
12:55 AM 57.2 °F - 51.8 °F 82% 30.17 in 10.0 mi North 6.9 mph - N/A   Overcast
1:15 AM 57.2 °F - 51.8 °F 82% 30.17 in 10.0 mi North 8.1 mph - N/A   Overcast
1:35 AM 57.2 °F - 51.8 °F 82% 30.17 in 10.0 mi North 8.1 mph - N/A   Overcast
1:55 AM 55.4 °F - 50.0 °F 82% 30.17 in 10.0 mi North - - N/A Rain Light Rain
2:15 AM 55.4 °F - 50.0 °F 82% 30.17 in 10.0 mi North 10.4 mph - N/A   Overcast
2:35 AM 55.4 °F - 50.0 °F 82% 30.17 in 10.0 mi North 9.2 mph - N/A   Overcast
2:55 AM 55.4 °F - 50.0 °F 82% 30.17 in 10.0 mi North 8.1 mph - N/A   Overcast
3:15 AM 55.4 °F - 50.0 °F 82% 30.17 in 10.0 mi North 9.2 mph - N/A   Overcast
3:35 AM 53.6 °F - 50.0 °F 88% 30.15 in 10.0 mi NNE 8.1 mph - N/A   Overcast
3:55 AM 53.6 °F - 50.0 °F 88% 30.16 in 10.0 mi North - - N/A   Overcast
4:15 AM 53.6 °F - 50.0 °F 88% 30.16 in 10.0 mi NNE 9.2 mph - N/A   Overcast
4:35 AM 53.6 °F - 50.0 °F 88% 30.15 in 10.0 mi NNE 10.4 mph - N/A   Overcast
4:55 AM 53.6 °F - 50.0 °F 88% 30.16 in 10.0 mi NNE 9.2 mph - N/A   Overcast
5:15 AM 53.6 °F - 50.0 °F 88% 30.15 in 10.0 mi North 8.1 mph - N/A   Overcast
5:35 AM 53.6 °F - 50.0 °F 88% 30.16 in 10.0 mi NNE 9.2 mph - N/A Rain Light Rain
5:55 AM 53.6 °F - 50.0 °F 88% 30.15 in 10.0 mi NNE 8.1 mph - N/A   Overcast
6:15 AM 53.6 °F - 50.0 °F 88% 30.16 in 10.0 mi NNE 5.8 mph - N/A   Overcast
6:35 AM 53.6 °F - 50.0 °F 88% 30.16 in 10.0 mi NNE 6.9 mph - N/A   Overcast
6:55 AM 53.6 °F - 50.0 °F 88% 30.16 in 10.0 mi NNE 8.1 mph - N/A   Overcast
7:15 AM 53.6 °F - 50.0 °F 88% 30.15 in 10.0 mi NNE 9.2 mph - N/A   Overcast
7:35 AM 53.6 °F - 50.0 °F 88% 30.16 in 10.0 mi North 6.9 mph - N/A   Overcast
7:55 AM 53.6 °F - 50.0 °F 88% 30.16 in 10.0 mi NNE 8.1 mph - N/A Rain Light Rain
8:15 AM 53.6 °F - 50.0 °F 88% 30.17 in 10.0 mi North - - N/A   Overcast
8:35 AM 53.6 °F - 50.0 °F 88% 30.17 in 10.0 mi North - - N/A   Overcast
8:55 AM 51.8 °F - 50.0 °F 94% 30.17 in 10.0 mi NNE 9.2 mph - N/A   Overcast
9:15 AM 51.8 °F - 50.0 °F 94% 30.18 in 10.0 mi NNE 8.1 mph - N/A   Overcast
9:35 AM 51.8 °F - 50.0 °F 94% 30.17 in 10.0 mi NNE 11.5 mph - N/A   Overcast
9:55 AM 53.6 °F - 50.0 °F 88% 30.17 in 10.0 mi NNE 9.2 mph 16.1 mph N/A   Overcast
10:15 AM 53.6 °F - 50.0 °F 88% 30.18 in 10.0 mi NNE 10.4 mph - N/A   Overcast
10:35 AM 53.6 °F - 50.0 °F 88% 30.17 in 10.0 mi NNE 9.2 mph 16.1 mph N/A   Overcast
10:55 AM 53.6 °F - 50.0 °F 88% 30.18 in 10.0 mi NNE 9.2 mph - N/A   Overcast
11:35 AM 53.6 °F - 50.0 °F 88% 30.17 in 10.0 mi North - - N/A   Overcast
11:55 AM 53.6 °F - 50.0 °F 88% 30.18 in 10.0 mi NE 8.1 mph - N/A   Overcast
12:15 PM 53.6 °F - 50.0 °F 88% 30.18 in 10.0 mi NNE 8.1 mph - N/A   Overcast
12:35 PM 53.6 °F - 50.0 °F 88% 30.19 in 10.0 mi NNE 8.1 mph - N/A   Overcast
12:55 PM 53.6 °F - 50.0 °F 88% 30.18 in 10.0 mi North - - N/A   Overcast
1:35 PM 55.4 °F - 50.0 °F 82% 30.18 in 10.0 mi North - - N/A   Overcast
1:55 PM 55.4 °F - 50.0 °F 82% 30.18 in 10.0 mi NNE 8.1 mph - N/A   Overcast
2:15 PM 55.4 °F - 50.0 °F 82% 30.17 in 10.0 mi NNE 6.9 mph - N/A   Overcast
2:35 PM 55.4 °F - 50.0 °F 82% 30.18 in 10.0 mi North 9.2 mph - N/A   Overcast
2:55 PM 55.4 °F - 50.0 °F 82% 30.17 in 10.0 mi NNE 10.4 mph 16.1 mph N/A   Overcast
3:15 PM 55.4 °F - 50.0 °F 82% 30.18 in 10.0 mi NE 9.2 mph - N/A   Overcast
3:35 PM 55.4 °F - 50.0 °F 82% 30.17 in 10.0 mi NE 9.2 mph - N/A   Overcast
3:55 PM 55.4 °F - 50.0 °F 82% 30.17 in 10.0 mi North - - N/A   Overcast
4:15 PM 55.4 °F - 48.2 °F 77% 30.17 in 10.0 mi NNE 10.4 mph 17.3 mph N/A   Overcast
4:35 PM 55.4 °F - 48.2 °F 77% 30.17 in 10.0 mi NE 8.1 mph - N/A   Overcast
4:55 PM 55.4 °F - 46.4 °F 72% 30.17 in 10.0 mi NE 11.5 mph - N/A   Overcast
5:15 PM 55.4 °F - 46.4 °F 72% 30.16 in 10.0 mi NE 10.4 mph 16.1 mph N/A   Overcast
5:35 PM 57.2 °F - 46.4 °F 67% 30.17 in 10.0 mi NE 9.2 mph 17.3 mph N/A   Scattered Clouds
5:55 PM 57.2 °F - 46.4 °F 67% 30.17 in 10.0 mi NE 10.4 mph 17.3 mph N/A   Scattered Clouds
6:15 PM 55.4 °F - 46.4 °F 72% 30.18 in 10.0 mi ENE 10.4 mph - N/A   Scattered Clouds
6:35 PM 55.4 °F - 46.4 °F 72% 30.19 in 10.0 mi ENE 6.9 mph 16.1 mph N/A   Clear
6:55 PM 53.6 °F - 46.4 °F 77% 30.19 in 10.0 mi ENE 6.9 mph - N/A   Clear
7:15 PM 51.8 °F - 46.4 °F 82% 30.20 in 10.0 mi ENE 5.8 mph - N/A   Clear
7:35 PM 51.8 °F - 46.4 °F 82% 30.21 in 10.0 mi NE 5.8 mph - N/A   Clear
7:55 PM 51.8 °F - 46.4 °F 82% 30.22 in 10.0 mi NE 6.9 mph - N/A   Clear
8:15 PM 51.8 °F - 44.6 °F 76% 30.22 in 10.0 mi NE 5.8 mph - N/A   Clear
8:35 PM 50.0 °F - 44.6 °F 82% 30.23 in 10.0 mi NE 5.8 mph - N/A   Clear
8:55 PM 50.0 °F - 44.6 °F 82% 30.23 in 10.0 mi ENE 6.9 mph - N/A   Clear
9:15 PM 50.0 °F - 42.8 °F 76% 30.25 in 10.0 mi NE 6.9 mph - N/A   Clear
9:35 PM 50.0 °F - 42.8 °F 76% 30.25 in 10.0 mi NE 5.8 mph - N/A   Clear
9:55 PM 48.2 °F - 42.8 °F 82% 30.25 in 10.0 mi ENE 4.6 mph - N/A   Clear
10:35 PM 46.4 °F 43.5 °F 42.8 °F 87% 30.26 in 10.0 mi NE 5.8 mph - N/A   Clear
10:55 PM 46.4 °F 42.9 °F 41.0 °F 81% 30.26 in 10.0 mi NE 6.9 mph - N/A   Clear
11:15 PM 46.4 °F 42.9 °F 41.0 °F 81% 30.26 in 10.0 mi NE 6.9 mph - N/A   Clear
11:35 PM 46.4 °F 42.9 °F 41.0 °F 81% 30.26 in 10.0 mi NE 6.9 mph - N/A   Clear
11:55 PM 46.4 °F 44.3 °F 41.0 °F 81% 30.26 in 10.0 mi NE 4.6 mph - N/A   Clear